Theta_e
316 321 317 320 323 324 325 325 325 327 325 323 321 320 320 319 320 321 321 321 319 320 323 322 321 320 320 320 322 322 320 318 312 311 304 306 305 305 306 307 308 308 309
319 318 318 318 317 318 318 320 321 321 320 321 320 319 318 318 319 319 318 319 318 320 319 318 317 316 316 317 317 315 315 315 312 308 301 302 302 303 303 303 304 306 306
316 314 317 313 317 316 314 315 316 318 318 318 317 317 316 315 315 317 318 318 319 318 314 313 311 310 310 312 312 310 308 306 304 303 299 301 300 301 300 300 300 301 304
313 313 314 313 313 312 313 313 314 313 316 315 315 314 314 313 314 315 317 317 317 313 310 307 307 305 306 309 308 307 305 302 300 299 298 298 298 299 299 297 296 298 298
308 310 311 313 313 310 310 311 311 313 314 314 312 311 311 311 311 312 312 312 312 308 307 305 305 306 306 306 305 303 302 299 298 297 295 296 296 295 295 297 295 297 298
303 305 308 309 308 310 311 310 313 312 311 311 309 309 309 309 306 306 309 311 309 308 306 305 305 304 304 304 303 303 302 298 296 295 295 294 295 296 297 296 296 296 295
301 302 303 304 306 307 307 309 308 307 308 306 307 308 308 309 303 303 308 310 309 308 307 307 305 305 306 304 304 303 302 302 301 297 295 295 295 297 297 297 299 298 297
299 299 302 304 303 304 304 303 303 305 305 305 306 308 307 305 302 302 305 308 307 307 307 307 305 306 303 303 301 300 300 299 301 301 300 301 301 303 302 302 301 300 300
297 298 299 301 300 301 301 303 304 303 303 305 306 305 303 302 300 300 303 304 302 300 300 301 305 304 299 300 303 301 301 300 300 300 298 298 297 299 301 302 298 298 295
296 297 299 299 300 300 300 300 301 303 303 302 300 301 300 298 297 297 300 300 298 299 300 300 298 299 297 299 304 302 300 301 302 301 299 300 303 303 303 301 299 295 294
296 297 298 298 299 300 300 300 301 300 298 297 297 297 297 298 297 296 297 297 296 296 296 297 299 296 295 295 298 301 299 300 302 302 302 301 303 302 303 304 301 299 295
295 296 296 298 299 300 300 300 299 297 296 295 295 295 296 297 296 295 295 296 298 298 298 299 299 295 295 295 298 295 295 297 302 301 300 299 300 301 302 303 303 302 301
295 296 297 298 299 300 299 297 296 296 295 294 294 294 294 295 296 295 295 295 297 299 301 299 295 294 295 298 296 296 297 301 302 302 300 299 300 302 303 303 304 303 302
296 296 298 298 298 298 298 297 296 295 294 294 294 293 293 294 296 297 297 298 297 300 297 300 300 299 296 298 300 301 302 301 301 300 302 301 302 300 299 301 300 300 299
295 295 294 294 293 293 293 295 295 295 295 293 294 295 293 294 296 294 297 301 303 300 303 302 301 301 299 300 299 299 299 300 299 300 300 300 300 299 298 300 298 299 297
294 294 294 294 293 293 292 291 291 292 293 293 294 296 296 293 292 292 292 292 292 295 300 299 298 297 296 296 296 297 298 299 298 299 299 300 299 298 298 298 298 297 296
293 294 295 295 294 293 293 292 291 292 292 291 290 290 291 290 291 291 291 291 293 295 297 296 296 296 296 296 296 296 296 298 299 298 298 299 300 299 298 297 296 296 295
297 296 298 297 296 296 295 297 298 296 294 294 292 293 291 291 292 292 292 294 296 296 297 296 296 296 296 297 296 296 296 297 297 297 297 299 299 298 297 296 295 295 294
299 300 302 302 302 300 299 297 296 295 294 294 295 294 294 291 291 291 291 298 296 296 296 296 297 296 296 296 296 296 296 296 296 296 298 297 297 298 296 295 295 292 292
300 296 299 300 299 299 298 297 296 297 297 297 297 297 299 297 296 297 297 297 296 296 296 296 296 296 296 296 296 296 297 298 299 298 297 297 297 297 296 295 293 293 292
301 302 295 302 301 300 300 298 298 297 296 296 296 294 286 297 297 297 297 297 297 297 297 296 294 293 293 295 296 296 296 297 299 297 297 297 296 295 296 295 293 293 292
301 302 302 300 300 299 299 298 298 297 296 296 297 295 289 298 297 297 297 297 297 297 298 297 295 293 293 293 294 294 293 293 294 297 297 297 296 297 296 293 292 292 292
303 301 300 300 300 296 299 299 299 299 298 298 298 297 297 297 297 297 298 298 298 297 296 295 294 293 294 294 293 292 290 290 293 293 298 297 295 295 295 292 291 291 291
303 302 301 301 300 300 299 298 298 295 298 298 298 298 298 298 298 298 298 298 297 297 296 295 293 292 293 293 293 292 290 287 292 291 297 298 296 295 295 294 291 291 291
302 302 301 301 300 300 299 299 298 298 298 298 298 298 298 298 298 298 298 298 298 297 296 295 294 293 292 292 291 290 286 285 289 286 296 297 298 297 294 293 292 291 291
302 302 302 301 300 300 300 299 299 299 298 298 298 298 298 298 298 298 298 298 297 296 295 293 293 292 291 291 289 286 285 286 287 286 294 295 294 297 297 294 292 291 290
Wind_Speed
5 4 7 10 7 4 3 4 5 4 5 7 7 9 11 10 10 9 10 10 9 12 11 9 9 9 7 7 6 5 3 2 5 1 4 5 5 6 7 8 9 8 9
5 7 5 1 4 6 9 7 8 6 4 6 8 9 10 12 11 9 11 8 11 10 6 8 7 7 8 6 4 4 4 3 2 3 3 5 6 7 7 9 8 8 8
9 4 5 5 6 5 6 6 8 9 9 7 9 6 9 11 13 10 10 10 9 4 5 6 8 8 7 5 5 4 5 5 5 3 2 3 5 3 7 8 7 7 7
11 12 10 7 4 3 8 9 8 9 9 7 7 5 7 10 11 11 8 8 9 4 6 7 6 7 8 8 5 6 6 5 5 5 5 4 4 5 5 4 5 4 4
16 13 11 10 7 8 6 10 9 4 8 7 9 8 9 9 8 7 7 8 3 6 6 6 7 10 17 17 7 7 7 6 5 6 6 5 4 4 3 3 3 2 3
14 15 15 11 11 9 8 5 6 5 6 7 10 11 9 6 5 8 9 4 5 5 6 6 6 12 15 19 18 17 9 7 8 6 5 6 5 2 2 2 1 1 1
15 13 16 13 13 10 7 7 7 6 7 9 11 10 7 5 6 7 4 3 4 3 2 4 5 6 9 8 11 13 15 15 11 7 7 3 2 2 2 3 1 5 4
13 14 13 11 8 8 7 7 6 7 9 7 8 5 1 1 4 4 4 4 4 3 2 6 6 7 5 10 10 11 11 9 6 5 4 2 2 4 3 3 1 3 3
13 11 10 10 8 7 8 6 3 5 5 5 2 2 3 2 3 5 6 6 8 9 12 13 9 7 8 4 6 8 7 7 8 9 7 5 5 7 5 4 7 3 3
13 11 8 7 6 6 5 5 2 4 3 4 5 5 8 5 9 11 8 6 8 7 10 10 13 9 14 14 9 6 4 4 4 3 0 1 1 6 10 8 6 7 5
9 8 5 5 5 4 3 3 3 3 4 5 7 7 9 10 12 18 15 10 8 9 8 6 5 11 12 11 8 5 4 7 5 5 5 3 3 4 4 4 5 5 3
5 4 2 3 2 5 4 2 5 5 6 6 8 8 8 9 14 16 14 13 8 6 6 1 2 6 4 4 2 7 10 8 5 3 4 4 4 4 3 4 5 4 3
3 2 2 1 1 4 5 6 5 6 6 6 6 7 7 7 8 15 10 7 2 6 4 4 2 3 8 5 10 10 4 4 4 1 4 6 4 3 4 3 2 5 3
6 5 4 4 8 9 6 6 6 6 6 6 7 9 9 6 5 4 2 2 4 4 3 3 5 4 2 3 4 6 4 4 4 5 4 6 4 6 6 5 4 4 2
9 9 10 10 10 10 10 8 8 8 9 9 8 8 9 6 2 5 3 2 1 2 3 2 1 2 2 3 4 6 7 7 6 6 6 4 7 7 6 5 5 5 6
10 9 9 8 9 9 9 10 18 16 15 10 6 7 2 1 6 1 11 11 11 6 3 2 5 7 8 8 8 7 7 8 7 7 7 7 8 6 6 6 6 6 5
11 10 10 11 8 9 10 10 10 10 15 13 11 10 10 5 10 11 12 12 6 6 8 8 7 7 7 7 7 6 7 7 8 8 7 8 7 7 7 6 6 6 5
7 7 5 9 9 9 8 8 8 9 8 6 7 5 5 6 7 9 10 6 8 6 5 6 6 6 6 6 7 7 6 6 7 7 8 9 8 8 7 6 6 6 6
4 2 5 7 7 9 10 10 9 9 8 7 5 3 1 3 2 4 1 6 7 7 7 7 7 7 8 8 8 8 7 5 6 7 9 9 9 8 7 8 6 7 6
4 5 7 9 8 8 8 8 8 8 7 7 5 5 3 6 8 7 8 8 9 8 8 9 9 9 10 9 9 9 8 7 10 8 8 7 7 7 6 6 6 5 5
5 4 6 8 8 8 9 10 10 9 9 8 8 5 4 7 8 9 9 9 9 9 9 10 10 11 10 10 10 10 10 10 8 8 7 7 6 6 8 7 6 5 5
1 2 7 8 8 8 8 8 8 8 8 8 7 7 9 9 9 9 10 10 10 11 10 10 10 10 10 10 10 10 10 11 10 7 7 7 5 6 7 6 6 5 6
4 9 8 7 7 8 8 7 7 7 8 9 9 8 8 9 9 9 9 9 9 10 10 11 11 10 9 9 9 9 9 9 10 9 5 7 6 6 6 6 6 5 5
7 8 9 9 8 9 9 9 9 10 10 9 8 8 9 8 9 10 9 9 10 10 10 10 10 13 11 10 10 10 8 8 8 8 9 6 5 7 8 7 6 7 6
8 8 8 7 7 8 8 9 9 9 9 8 8 8 8 9 9 9 8 8 9 9 11 10 9 12 14 15 15 16 14 16 12 9 7 9 8 9 9 7 6 6 8
8 8 7 7 7 7 7 8 8 8 8 8 8 8 8 8 8 8 8 9 9 10 12 10 12 16 15 13 14 14 13 12 12 14 8 7 9 6 7 10 11 6 7
Wind_Direction
259 287 307 333 325 296 272 303 298 282 289 292 299 307 301 298 291 292 292 293 305 296 302 325 335 342 328 321 324 324 323 350 294 88 35 5 29 37 41 52 50 51 59
18 36 15 335 346 352 323 333 312 304 299 296 297 289 303 303 296 307 301 311 306 312 343 346 342 336 324 321 310 308 311 332 313 339 38 28 49 43 49 56 51 52 56
333 349 339 347 352 316 293 296 308 309 296 287 275 295 303 320 314 316 314 313 314 358 29 13 348 337 329 327 326 12 16 39 21 22 87 55 49 39 58 47 40 39 36
320 329 308 286 288 284 315 299 300 290 307 330 300 313 309 298 300 309 316 329 321 70 61 47 18 14 350 337 43 23 33 46 41 60 62 65 52 38 43 48 47 31 33
311 300 296 290 268 266 261 264 273 283 297 316 313 312 311 309 305 326 311 296 170 102 101 87 58 54 52 47 41 40 48 56 56 61 60 62 49 42 36 358 40 4 15
301 302 291 284 288 288 259 255 289 317 297 291 287 289 290 286 338 311 291 236 119 132 140 146 121 80 68 71 66 62 70 81 75 72 65 69 56 30 3 355 324 292 20
288 293 289 281 288 298 300 306 298 304 301 293 287 283 278 301 327 300 281 110 130 153 180 211 120 122 106 94 82 85 79 75 79 94 93 68 30 285 327 309 358 50 49
284 275 288 301 306 312 304 289 285 291 281 277 271 283 39 327 286 246 133 100 95 57 22 86 85 63 37 95 87 72 58 48 49 83 87 82 36 0 351 352 347 98 58
286 293 293 291 292 285 283 296 352 349 323 296 12 89 126 76 77 91 88 75 82 70 58 44 48 29 7 73 110 99 95 87 55 55 70 61 28 6 3 359 25 103 98
285 287 292 277 304 289 308 320 1 315 3 61 75 77 93 74 55 54 55 76 81 79 72 59 39 52 52 44 47 74 77 111 124 145 204 230 66 46 37 43 40 50 27
274 286 313 337 324 331 30 345 329 76 79 76 80 69 70 72 69 67 62 68 74 62 48 43 357 43 40 34 43 15 348 328 159 160 132 140 115 72 66 36 53 53 58
255 253 262 280 342 290 244 222 98 96 89 83 84 77 67 68 72 65 69 75 85 106 112 112 21 59 58 36 19 318 313 318 301 128 115 90 63 60 50 59 52 74 66
120 153 128 193 50 25 86 92 88 84 92 90 88 82 76 65 64 72 73 66 31 116 129 125 227 301 315 350 0 347 315 351 11 27 123 106 101 72 48 64 29 100 14
73 69 53 51 68 62 61 63 74 80 81 79 79 81 82 75 83 134 191 208 123 116 133 213 249 236 323 282 356 17 357 355 358 358 58 108 109 73 44 22 35 57 96
58 60 63 65 65 63 52 60 67 54 75 85 80 91 101 108 264 281 264 205 58 101 150 205 345 75 71 65 57 37 19 14 15 11 11 91 79 70 49 29 28 30 46
63 61 63 70 69 66 68 67 53 72 85 99 117 128 122 19 269 305 51 32 18 34 78 44 34 43 43 44 35 33 29 18 18 15 11 47 59 54 56 39 32 33 46
75 77 83 85 95 91 86 87 85 66 69 62 63 51 39 27 21 19 11 353 331 6 52 49 45 40 57 47 44 44 22 27 23 21 12 39 48 58 47 48 44 30 15
90 109 111 95 101 105 107 107 90 85 86 79 42 65 48 37 13 349 345 24 58 52 56 51 50 52 49 54 55 43 37 30 37 26 22 40 46 42 33 46 33 30 17
50 50 110 127 117 95 89 93 97 95 95 95 90 59 14 342 45 83 153 68 63 60 56 56 50 46 45 46 44 40 31 27 55 32 50 34 31 32 38 33 24 32 6
29 37 95 107 116 116 114 115 121 124 115 99 94 105 124 72 66 64 59 60 57 53 51 49 41 39 32 47 45 43 25 13 57 57 40 38 24 32 31 43 33 16 6
54 35 336 77 73 74 65 66 68 70 72 71 66 58 60 89 77 64 58 51 52 50 52 56 53 46 37 26 37 27 25 21 53 62 43 28 22 30 33 36 22 15 6
120 34 102 98 103 101 99 101 102 102 101 98 86 62 59 68 65 62 56 52 49 42 36 48 52 52 47 40 30 29 16 6 12 9 58 38 15 36 50 30 18 10 17
122 89 97 102 110 122 114 113 106 94 87 80 77 75 72 71 70 65 62 61 66 66 54 44 46 44 41 51 51 39 19 352 346 354 33 56 38 31 56 35 21 16 12
94 78 72 70 72 74 75 75 73 72 81 81 81 80 79 77 73 69 66 63 56 54 60 66 60 53 37 42 32 23 16 359 349 340 340 68 50 50 39 40 25 16 13
99 97 98 96 92 87 84 81 80 80 84 84 84 83 81 77 75 72 68 63 64 68 69 61 58 54 46 38 27 16 4 357 357 347 356 24 66 83 68 41 26 18 16
91 86 85 86 87 88 86 86 86 83 82 80 78 77 76 75 73 69 71 75 77 73 67 50 48 48 46 33 19 7 358 355 352 343 357 34 26 56 81 63 37 23 15